Flag for Germany Weather past 2 weeks in Haltern am See, North Rhine-Westphalia, Germany

Now
52 °F

Drizzle. Fog.


Feels Like: 46 °F
Forecast: 44 / 53 °F
Wind: 17 mph from Southwest

Location: Dortmund / Wickede

Current Time: Dec 18, 2014 at 1:53:29 PM

Latest Report: Dec 18, 2014 at 12:50 PM


Visibility: 2 mi

Pressure: 29.80 "Hg

Humidity: 88%

Dew point: 48 °F

Location of Haltern am SeeLocation

Historic Weather in Haltern am See — Graph

°F

Haltern am See temperature yesterday

Maximum temperature yesterday: 48 °F (at 7:50 PM)
Minimum temperature yesterday: 39 °F (at 5:20 AM)
Average temperature yesterday: 43 °F

Past Weeks' High & Low Weather Summary

 TemperatureHumidityPressure
High52 °F (Dec 18, 10:20 AM)93% (Dec 3, 3:20 PM)30.36 "Hg (Dec 3, 3:20 PM)
Low27 °F (Dec 3, 3:20 PM)57% (Dec 7, 2:20 PM)29.39 "Hg (Dec 12, 12:50 PM)
Average39 °F82%29.94 "Hg
* Reported Dec 3 12:20 PM — Dec 18 12:20 PM, Haltern am See, Weather by CustomWeather, © 2014

Note: Actual official high and low records may vary slightly from our data, if they occured in-between our weather recording intervals... More about our weather records

Advertising

Haltern am See weather history for previous 24 hours

 ConditionsComfort  
Time TempWeatherWind HumidityBarometerVisibility
12:20 PM
Dec 18
52 °FDrizzle. Partly sunny.14 mph88%29.80 "Hg5 mi
11:50 AM52 °FDrizzle. Fog.13 mph88%29.83 "Hg3 mi
11:20 AM52 °FDrizzle. Partly sunny.15 mph88%29.83 "Hg5 mi
10:50 AM52 °FPartly sunny.15 mph88%29.83 "HgN/A
10:20 AM52 °FPartly sunny.14 mph88%29.83 "HgN/A
9:50 AM50 °FDrizzle. Partly sunny.15 mph88%29.83 "HgN/A
9:20 AM50 °FPartly sunny.15 mph88%29.80 "Hg6 mi
8:50 AM50 °FPartly sunny.14 mph88%29.80 "HgN/A
8:20 AM50 °FPassing clouds.14 mph88%29.80 "HgN/A
7:50 AM50 °FPassing clouds.13 mph88%29.80 "HgN/A
7:20 AM50 °FPassing clouds.14 mph88%29.80 "HgN/A
6:50 AM50 °FPassing clouds.14 mph88%29.80 "HgN/A
6:20 AM50 °FPassing clouds.12 mph88%29.80 "HgN/A
5:50 AM50 °FPassing clouds.12 mph88%29.80 "HgN/A
5:20 AM50 °FPassing clouds.16 mph88%29.80 "HgN/A
10:20 PM
Dec 17
48 °FLight rain. Low clouds.10 mph87%29.77 "Hg4 mi
9:50 PM48 °FLight rain. Low clouds.10 mph87%29.77 "Hg4 mi
9:20 PM48 °FLight rain. Low clouds.10 mph87%29.74 "Hg3 mi
8:50 PM48 °FLight rain. Low clouds.10 mph87%29.74 "Hg4 mi
8:20 PM48 °FLight rain. Low clouds.12 mph87%29.71 "Hg3 mi
7:50 PM48 °FRain. Low clouds.14 mph87%29.71 "Hg3 mi
7:20 PM46 °FPassing clouds.14 mph93%29.68 "Hg3 mi
6:50 PM46 °FPassing clouds.13 mph93%29.68 "Hg4 mi
6:20 PM46 °FPassing clouds.14 mph93%29.68 "Hg4 mi
5:50 PM46 °FPassing clouds.15 mph87%29.65 "Hg3 mi
5:20 PM45 °FDrizzle. Low clouds.14 mph93%29.65 "Hg3 mi
4:50 PM45 °FDrizzle. Fog.15 mph93%29.65 "Hg3 mi
4:20 PM45 °FFog.15 mph87%29.62 "Hg2 mi
3:50 PM45 °FDrizzle. Fog.16 mph87%29.62 "Hg2 mi
3:20 PM43 °FDrizzle. Fog.14 mph93%29.59 "Hg2 mi
2:50 PM43 °FDrizzle. Fog.17 mph87%29.59 "Hg2 mi
2:20 PM43 °FDrizzle. Overcast.20 mph87%29.59 "Hg3 mi
1:50 PM43 °FPartly sunny.20 mph81%29.56 "HgN/A
1:20 PM41 °FPartly sunny.21 mph87%29.56 "HgN/A
Weather by CustomWeather, © 2014

See weather overviewHow to use our weather pages